Weather History for South St. Paul, MN

Change the Weather History Date:

Wednesday, August 21, 2013

  Actual Average (KMSP) Record (KMSP)
Temperature  
Mean Temperature 80 °F 71 °F  
Max Temperature 87 °F 80 °F 98 °F (1947)
Min Temperature 74 °F 61 °F 44 °F (2004)
Degree Days  
Heating Degree Days 0 0  
Month to date heating degree days 0  
Since 1 June heating degree days 49  
Since 1 July heating degree days 5  
Cooling Degree Days 16 6  
Month to date cooling degree days 152  
Year to date cooling degree days 628  
Since 1 June cooling degree days 586  
Growing Degree Days 30 (Base 50)    
Moisture  
Dew Point 71 °F    
Average Humidity 73    
Maximum Humidity 86    
Minimum Humidity 59    
Precipitation  
Precipitation 0.12 in 0.14 in 3.64 in (1924)
Month to date precipitation 3.05  
Year to date precipitation 20.92  
Snow  
Snow 0.00 in 0.00 in 0.00 in ()
Month to date snowfall 0.0  
Since 1 June snowfall 0.0  
Since 1 July snowfall 0.0  
Snow Depth -    
Sea Level Pressure  
Sea Level Pressure 29.90 in    
Wind  
Wind Speed 5 mph (SSW)    
Max Wind Speed 12 mph    
Max Gust Speed -    
Visibility 9 miles    
Events Rain , Thunderstorm    
T = Trace of Precipitation, MM = Missing Value Source: NWS Daily Summary

Daily Weather History Graph

Daily Weather History Graph

Search for Another Location

Airport:

Trip Planner

Search our weather history database for the weather conditions in past years. The results will help you decide how hot, cold, wet, or windy it might be!

Date:

Astronomy

Aug. 21, 2013 Rise Set
Actual Time 6:21 AM CDT 8:07 PM CDT
Civil Twilight 5:50 AM CDT 8:38 PM CDT
Nautical Twilight 5:12 AM CDT 9:16 PM CDT
Astronomical Twilight 4:30 AM CDT 9:57 PM CDT
Moon 8:11 PM CDT (8/21) 7:06 AM CDT (8/21)
Length of Visible Light 14h 48m
Length of Day
13h 46m
Waxing Gibbous, 99% of the Moon is Illuminated
Aug 21
Waxing Gibbous
Aug 28
Last Quarter
Sep 5
New
Sep 12
First Quarter
Sep 19
Full

Hourly Weather History & Observations

Time (CDT) Temp. Heat Index Dew Point Humidity Pressure Visibility Wind Dir Wind Speed Gust Speed Precip Events Conditions
12:13 AM 79.3 °F - 68.9 °F 70% 29.88 in 10.0 mi South 3.5 mph - N/A   Clear
12:32 AM 78.8 °F - 68.9 °F 72% 29.87 in 10.0 mi South 5.8 mph - N/A   Clear
12:53 AM 78.1 °F - 68.9 °F 73% 29.87 in 10.0 mi South 5.8 mph - N/A   Clear
1:13 AM 77.9 °F - 68.9 °F 74% 29.87 in 10.0 mi South 5.8 mph - N/A   Clear
1:32 AM 77.9 °F - 68.9 °F 74% 29.87 in 10.0 mi South 8.1 mph - N/A   Clear
1:53 AM 77.2 °F - 68.9 °F 76% 29.87 in 10.0 mi South 8.1 mph - N/A   Clear
2:13 AM 76.6 °F - 68.9 °F 77% 29.87 in 10.0 mi South 4.6 mph - N/A   Clear
2:32 AM 76.6 °F - 68.9 °F 77% 29.87 in 10.0 mi South 6.9 mph - N/A   Clear
2:53 AM 77.2 °F - 69.3 °F 76% 29.87 in 10.0 mi South 6.9 mph - N/A   Clear
3:12 AM 77.2 °F - 69.3 °F 76% 29.87 in 10.0 mi South 8.1 mph - N/A   Clear
3:33 AM 77.0 °F - 69.1 °F 76% 29.86 in 10.0 mi South 8.1 mph - N/A   Clear
3:53 AM 76.8 °F - 69.1 °F 77% 29.85 in 10.0 mi South 5.8 mph - N/A   Clear
4:12 AM 76.5 °F - 69.1 °F 78% 29.86 in 10.0 mi SSW 4.6 mph - N/A   Clear
4:33 AM 76.3 °F - 69.3 °F 79% 29.86 in 10.0 mi South 3.5 mph - N/A   Clear
4:52 AM 76.1 °F - 69.3 °F 79% 29.87 in 10.0 mi Calm Calm - N/A   Clear
5:12 AM 75.6 °F - 69.3 °F 81% 29.87 in 10.0 mi Calm Calm - N/A   Clear
5:33 AM 74.8 °F - 69.3 °F 83% 29.87 in 7.0 mi SSE 3.5 mph - N/A   Clear
5:52 AM 74.7 °F - 69.3 °F 83% 29.87 in 10.0 mi SSE 5.8 mph - N/A   Clear
6:13 AM 74.3 °F - 69.4 °F 85% 29.87 in 7.0 mi SSE 3.5 mph - N/A   Clear
6:33 AM 74.3 °F - 69.3 °F 84% 29.87 in 5.0 mi Calm Calm - N/A   Haze
6:52 AM 74.1 °F - 69.3 °F 85% 29.87 in 5.0 mi SSE 5.8 mph - N/A   Haze
7:13 AM 74.3 °F - 69.6 °F 85% 29.87 in 7.0 mi SSE 4.6 mph - N/A   Clear
7:32 AM 74.7 °F - 69.4 °F 84% 29.87 in 7.0 mi SSE 4.6 mph - N/A   Clear
7:53 AM 75.7 °F - 69.3 °F 80% 29.88 in 7.0 mi SSE 3.5 mph - N/A   Clear
8:13 AM 76.6 °F - 69.1 °F 77% 29.88 in 10.0 mi South 3.5 mph - N/A   Clear
8:32 AM 77.9 °F - 68.7 °F 73% 29.88 in 10.0 mi South 4.6 mph - N/A   Clear
8:53 AM 78.6 °F - 68.9 °F 72% 29.88 in 10.0 mi South 6.9 mph - N/A   Clear
9:13 AM 79.5 °F - 69.3 °F 71% 29.88 in 10.0 mi SW 8.1 mph - N/A   Clear
9:32 AM 80.6 °F 83.9 °F 69.8 °F 70% 29.88 in 10.0 mi SSW 8.1 mph - N/A   Clear
9:53 AM 81.9 °F 85.6 °F 69.8 °F 67% 29.88 in 10.0 mi South 6.9 mph - N/A   Clear
10:12 AM 82.8 °F 86.7 °F 70.0 °F 65% 29.87 in 10.0 mi SSW 8.1 mph - N/A   Clear
10:33 AM 83.7 °F 87.5 °F 69.6 °F 62% 29.88 in 10.0 mi SW 8.1 mph - N/A   Clear
10:53 AM 84.0 °F 88.1 °F 69.6 °F 62% 29.88 in 10.0 mi SW 8.1 mph - N/A   Clear
11:12 AM 84.6 °F 88.8 °F 69.8 °F 61% 29.87 in 10.0 mi SSW 6.9 mph - N/A   Clear
11:33 AM 84.6 °F 88.8 °F 70.0 °F 61% 29.88 in 10.0 mi SW 6.9 mph - N/A   Clear
11:52 AM 85.3 °F 90.1 °F 70.3 °F 61% 29.90 in 10.0 mi SW 8.1 mph - N/A   Clear
12:13 PM 84.9 °F 89.7 °F 70.5 °F 62% 29.89 in 10.0 mi SW 5.8 mph - N/A   Clear
12:33 PM 85.6 °F 90.4 °F 70.5 °F 60% 29.90 in 10.0 mi SW 5.8 mph - N/A   Clear
12:53 PM 86.0 °F 91.5 °F 71.1 °F 61% 29.90 in 10.0 mi West 9.2 mph - N/A   Scattered Clouds
1:13 PM 85.3 °F 90.4 °F 71.1 °F 62% 29.91 in 10.0 mi WSW 6.9 mph - N/A   Mostly Cloudy
1:32 PM 85.6 °F 91.1 °F 71.2 °F 62% 29.91 in 10.0 mi WSW 6.9 mph - N/A   Scattered Clouds
1:53 PM 86.0 °F 91.5 °F 71.2 °F 61% 29.91 in 10.0 mi WSW 6.9 mph - N/A   Clear
2:12 PM 87.1 °F 93.2 °F 71.6 °F 60% 29.91 in 10.0 mi SSW 8.1 mph - N/A   Clear
2:33 PM 87.3 °F 93.2 °F 71.2 °F 59% 29.90 in 10.0 mi Calm Calm - N/A   Clear
2:53 PM 87.1 °F 93.2 °F 71.6 °F 60% 29.90 in 10.0 mi Calm Calm - N/A   Clear
3:12 PM 86.5 °F 92.5 °F 71.6 °F 61% 29.90 in 10.0 mi Calm Calm - N/A   Scattered Clouds
3:33 PM 86.2 °F 92.6 °F 72.1 °F 63% 29.91 in 10.0 mi WSW 5.8 mph - N/A Thunderstorm Thunderstorm
3:53 PM 85.5 °F 91.8 °F 72.7 °F 65% 29.93 in 10.0 mi SW 8.1 mph - N/A Thunderstorm Thunderstorm
4:12 PM 84.7 °F 91.0 °F 72.5 °F 67% 29.94 in 10.0 mi South 8.1 mph - N/A Thunderstorm Thunderstorm
4:33 PM 83.1 °F 89.5 °F 73.6 °F 73% 29.93 in 10.0 mi West 9.2 mph - N/A   Scattered Clouds
4:53 PM 81.3 °F 87.6 °F 75.4 °F 82% 29.92 in 3.0 mi West 8.1 mph - 0.12 in Rain , Thunderstorm Heavy Thunderstorms and Rain
5:12 PM 82.0 °F 87.9 °F 73.9 °F 76% 29.92 in 10.0 mi WNW 6.9 mph - N/A   Scattered Clouds
5:33 PM 82.9 °F 89.1 °F 73.4 °F 73% 29.91 in 10.0 mi WNW 4.6 mph - N/A   Clear
5:52 PM 85.1 °F 94.1 °F 75.4 °F 73% 29.91 in 10.0 mi NW 5.8 mph - N/A   Clear
6:12 PM 86.4 °F 95.1 °F 74.5 °F 68% 29.90 in 7.0 mi NNW 11.5 mph - N/A   Clear
6:33 PM 86.4 °F 93.8 °F 73.2 °F 65% 29.90 in 10.0 mi North 8.1 mph - N/A   Clear
6:52 PM 86.5 °F 92.5 °F 71.6 °F 61% 29.91 in 10.0 mi North 8.1 mph - N/A   Clear
7:13 PM 85.6 °F 91.5 °F 71.6 °F 63% 29.93 in 10.0 mi NNE 6.9 mph - N/A   Clear
7:33 PM 85.1 °F 91.1 °F 72.0 °F 65% 29.95 in 10.0 mi ESE 3.5 mph - N/A   Clear
7:52 PM 83.3 °F 89.3 °F 73.0 °F 71% 29.95 in 10.0 mi SSE 3.5 mph - N/A   Clear
8:13 PM 81.9 °F 88.2 °F 74.7 °F 79% 29.96 in 7.0 mi SSE 3.5 mph - N/A   Clear
8:33 PM 81.1 °F 87.2 °F 75.2 °F 82% 29.96 in 7.0 mi Calm Calm - N/A   Clear
8:52 PM 80.6 °F 85.7 °F 74.3 °F 81% 29.97 in 7.0 mi Calm Calm - N/A   Scattered Clouds
9:13 PM 80.2 °F 85.0 °F 74.3 °F 82% 29.98 in 10.0 mi Calm Calm - N/A   Scattered Clouds
9:33 PM 79.7 °F - 74.1 °F 83% 29.98 in 10.0 mi Calm Calm - N/A   Clear
9:52 PM 79.7 °F - 74.1 °F 83% 29.98 in 10.0 mi Calm Calm - N/A   Scattered Clouds
10:13 PM 79.5 °F - 74.1 °F 83% 29.99 in 7.0 mi Calm Calm - N/A   Scattered Clouds
10:33 PM 79.3 °F - 74.3 °F 84% 29.99 in 7.0 mi Calm Calm - N/A   Clear
10:53 PM 78.6 °F - 74.1 °F 86% 30.00 in 7.0 mi Calm Calm - N/A   Clear
11:13 PM 78.8 °F - 74.3 °F 86% 30.00 in 7.0 mi Calm Calm - N/A   Scattered Clouds
11:32 PM 80.1 °F 84.0 °F 72.1 °F 77% 29.99 in 10.0 mi NNE 3.5 mph - N/A   Scattered Clouds
11:52 PM 79.0 °F - 71.2 °F 77% 29.99 in 10.0 mi NNE 3.5 mph - N/A   Clear